Voltar ao catálogo

SHIJIAN 6 01B

SJ-6 01B

AtivoCiênciaSSO
NORAD 28414·PAYLOAD·🇨🇳 China

Lançado Sep 8, 2004 de Taiyuan Satellite Launch Center

Loading…

Próximas Passagens (próximas 24 horas)

TLE

AtualizadoSource: Space-Track

Época: Sep 14, 2026, 15:31 UTC

1 28414U 04035B   26257.64704848  .00002651  00000-0  18186-3 0  9995
2 28414  97.6045 274.3988 0004317 174.5887 185.5388 15.06861585200294

Acompanhe SHIJIAN 6 01B em tempo real com AllMySat

Download on the App Store